HORIS-2

operational
NORAD ID: 64554 Int'l Des: NNA 2025-135 Owner: ACMEO Country: US
LEOCIRCULARRETROGRADESSO

HORIS-2について

説明を読み込み中...

リアルタイム位置

3D地球を読み込み中...

次回通過

高度履歴

Altitude vs Time

uPlot chart will show altitude changes over time

軌道要素

1 64554U 25135AC 25340.89343288 .00021984 00000-0 93688-3 0 9990
2 64554 97.4528 93.2792 0000381 204.0032 156.1187 15.22966719 25662
Epoch: Dec 6, 2025 • Age: 13 hours

現在のステータス

高度 502.6 km
速度 7.62 km/s
衛星直下点 40.73°N, 43.82°E
打ち上げ日 Jun 23, 2025
運用期間 0.4 years
タイプ other

技術仕様

分類 Payload
質量 1.00 kg
乾燥質量 1.00 kg
総質量 1.00 kg
長さ 0.10 m
直径 0.10 m
スパン 0.10 m
形状 Box
製造者 ACMEO
バスタイプ Cubesat 1U
フェーズステータス In Orbit
所有者/国 ACMEO/US

大規模コンステレーション

Loading constellations...